Weather History for Mount Shasta, CA

Change the Weather History Date:

Tuesday, January 28, 2014

  Actual Average Record
Temperature  
Mean Temperature 49 °F 37 °F  
Max Temperature 57 °F 46 °F 65 °F (1931)
Min Temperature 41 °F 27 °F 6 °F (1979)
Degree Days  
Heating Degree Days 16 28  
Month to date heating degree days 690 820  
Since 1 July heating degree days 2865 3142  
Cooling Degree Days 0 0  
Month to date cooling degree days 0 0  
Year to date cooling degree days 0 0  
Moisture  
Dew Point 35 °F    
Average Humidity 61    
Maximum Humidity 73    
Minimum Humidity 47    
Precipitation  
Precipitation T in 0.21 in 1.28 in (1947)
Month to date precipitation 0.15 6.43  
Year to date precipitation 0.15 6.43  
Sea Level Pressure  
Sea Level Pressure 30.25 in    
Wind  
Wind Speed 2 mph (East)    
Max Wind Speed 7 mph    
Max Gust Speed 12 mph    
Visibility 10 miles    
Events      
T = Trace of Precipitation, MM = Missing Value Source: NWS Daily Summary

Daily Weather History Graph

Daily Weather History Graph

Search for Another Location

Airport:

Trip Planner

Search our weather history database for the weather conditions in past years. The results will help you decide how hot, cold, wet, or windy it might be!

Date:

Astronomy

Jan. 28, 2014 Rise Set
Actual Time 7:24 AM PST 5:20 PM PST
Civil Twilight 6:54 AM PST 5:50 PM PST
Nautical Twilight 6:21 AM PST 6:23 PM PST
Astronomical Twilight 5:48 AM PST 6:56 PM PST
Moon 5:11 AM PST (1/28) 3:16 PM PST (1/28)
Length of Visible Light 10h 55m
Length of Day
9h 56m
Waning Crescent, 6% of the Moon is Illuminated
Jan 28
Waning Crescent
Jan 30
New
Feb 6
First Quarter
Feb 14
Full
Feb 22
Last Quarter

Hourly Weather History & Observations

Time (PST) Temp. Windchill Dew Point Humidity Pressure Visibility Wind Dir Wind Speed Gust Speed Precip Events Conditions
12:56 AM 42.1 °F - 34.0 °F 73% 30.26 in 10.0 mi Calm Calm - 0.00 in   Overcast
1:56 AM 43.0 °F 41.3 °F 30.9 °F 62% 30.26 in 10.0 mi Variable 3.5 mph - N/A   Overcast
2:56 AM 43.0 °F 40.3 °F 30.9 °F 62% 30.27 in 10.0 mi Variable 4.6 mph - N/A   Overcast
3:56 AM 43.0 °F - 30.9 °F 62% 30.25 in 10.0 mi Calm Calm - N/A   Overcast
4:56 AM 42.1 °F - 33.1 °F 70% 30.26 in 10.0 mi Calm Calm - N/A   Overcast
5:56 AM 42.1 °F - 32.0 °F 67% 30.28 in 10.0 mi Calm Calm - 0.00 in   Overcast
6:56 AM 41.0 °F 39.0 °F 33.1 °F 73% 30.29 in 10.0 mi Variable 3.5 mph - N/A   Overcast
7:56 AM 42.1 °F - 32.0 °F 67% 30.29 in 10.0 mi Calm Calm - N/A   Mostly Cloudy
8:56 AM 44.1 °F - 35.1 °F 71% 30.30 in 6.0 mi Calm Calm - N/A   Haze
9:56 AM 46.0 °F 44.8 °F 34.0 °F 63% 30.31 in 10.0 mi East 3.5 mph - N/A   Overcast
10:56 AM 48.9 °F - 37.0 °F 64% 30.31 in 10.0 mi Calm Calm - N/A   Overcast
11:56 AM 54.0 °F - 37.0 °F 53% 30.27 in 10.0 mi Calm Calm - N/A   Overcast
12:56 PM 55.0 °F - 37.0 °F 51% 30.25 in 10.0 mi Calm Calm - N/A   Overcast
1:56 PM 55.9 °F - 36.0 °F 47% 30.23 in 10.0 mi Variable 3.5 mph - N/A   Overcast
2:56 PM 57.0 °F - 37.0 °F 47% 30.21 in 10.0 mi Variable 3.5 mph - N/A   Overcast
3:56 PM 55.0 °F - 36.0 °F 49% 30.22 in 10.0 mi Calm Calm - N/A   Mostly Cloudy
4:56 PM 54.0 °F - 37.0 °F 53% 30.24 in 10.0 mi Variable 3.5 mph - N/A   Overcast
5:56 PM 52.0 °F - 37.0 °F 57% 30.24 in 10.0 mi Calm Calm - N/A   Overcast
6:56 PM 50.0 °F - 37.0 °F 61% 30.23 in 10.0 mi Calm Calm - N/A   Partly Cloudy
7:56 PM 51.1 °F - 37.0 °F 59% 30.22 in 10.0 mi Variable 4.6 mph - N/A   Overcast
8:56 PM 51.1 °F - 37.0 °F 59% 30.24 in 10.0 mi Calm Calm - N/A   Overcast
9:56 PM 51.1 °F - 37.0 °F 59% 30.23 in 10.0 mi Calm Calm - N/A   Overcast
10:56 PM 50.0 °F - 37.0 °F 61% 30.22 in 10.0 mi Variable 3.5 mph - N/A   Overcast
11:56 PM 50.0 °F - 37.9 °F 63% 30.19 in 10.0 mi Variable 3.5 mph - N/A   Overcast